Wind_Speed
8 8 7 6 4 4 3 3 3 3 4 4 3 2 3 4 5 4 5 7 7 6 6 6 6 3 2 2 3 5 5 6 7 7 6 5 5 5 6 6 6 8 10 11 12 13 14
8 7 6 6 5 5 5 5 5 5 6 5 4 3 3 4 5 4 5 7 8 8 7 6 6 7 5 6 7 6 7 8 8 7 7 7 7 7 7 7 9 8 11 12 13 14 15
9 8 7 7 7 7 7 7 7 6 6 5 4 3 3 3 4 4 5 7 9 9 7 6 7 6 7 7 7 7 7 8 8 8 8 8 8 8 7 7 9 8 10 12 14 14 17
10 10 10 10 9 8 8 8 7 7 6 6 5 4 4 4 4 4 5 7 9 10 9 7 7 8 8 7 6 5 4 7 8 8 7 7 8 8 8 8 6 8 10 8 15 16 17
11 11 11 11 10 9 9 8 7 7 7 7 6 6 5 4 5 4 5 7 10 11 10 8 9 7 7 5 4 8 9 9 9 7 5 5 5 6 7 7 5 10 8 11 14 15 19
11 10 10 10 10 9 9 9 9 8 8 7 7 7 6 5 5 6 7 8 9 12 9 14 5 8 6 8 11 10 10 9 7 6 5 5 5 6 7 8 6 7 9 10 12 16 17
12 12 11 11 10 10 10 10 10 9 9 8 8 7 7 6 5 6 8 9 11 11 14 12 14 12 12 10 9 9 8 5 3 3 4 4 4 4 7 11 15 14 11 11 10 20 18
13 13 12 12 11 10 11 10 10 10 9 9 8 8 7 7 7 7 8 9 10 13 15 15 12 10 9 9 7 3 0 1 1 1 2 2 3 7 7 8 10 11 10 10 13 18 17
14 13 13 12 12 12 11 11 10 10 10 9 9 8 8 8 8 8 8 8 10 12 15 7 5 4 2 1 1 2 1 1 2 1 2 4 8 7 8 9 9 9 10 11 12 17 20
14 14 13 13 12 12 12 11 11 10 10 9 9 9 9 8 8 8 7 8 9 11 4 3 4 3 6 4 4 2 1 1 3 3 4 7 7 9 10 11 12 10 18 17 17 13 10
15 14 13 13 13 12 12 12 12 12 12 11 10 10 9 9 9 8 7 7 7 9 1 1 1 4 5 4 4 3 5 6 6 7 7 10 12 13 13 16 15 14 19 18 17 15 16
21 19 17 15 13 12 12 12 12 12 12 12 11 10 9 9 9 8 7 6 6 2 5 3 3 2 5 5 5 7 8 9 9 11 11 15 16 16 17 16 16 18 17 17 16 12 10
26 24 21 20 17 15 14 13 12 12 13 13 11 11 9 9 8 7 7 5 3 4 4 5 5 7 7 8 10 11 10 9 8 7 10 13 17 18 18 16 16 14 8 5 6 5 7
31 28 26 23 22 19 17 16 15 13 11 11 11 10 9 8 7 7 6 5 5 5 7 6 9 9 12 13 11 7 8 14 13 13 14 8 7 10 10 13 11 8 7 6 7 8 14
30 29 31 27 26 23 20 18 17 15 14 12 11 9 7 6 6 7 7 7 5 7 9 7 10 15 11 5 7 11 12 14 16 9 6 4 7 7 10 14 11 6 8 12 10 20 20
33 27 28 28 27 27 23 22 21 17 15 15 13 12 10 9 9 9 9 11 10 10 12 12 9 8 6 10 8 7 6 8 9 10 11 10 10 12 15 14 14 15 12 6 5 6 10
19 36 27 28 27 27 26 29 25 21 19 18 16 16 13 11 11 13 15 14 14 15 14 11 12 12 14 13 14 9 9 13 15 16 14 13 10 10 11 10 10 12 15 15 12 11 5
30 25 32 29 18 28 27 29 27 26 25 22 20 19 17 16 16 15 19 17 16 14 14 15 16 17 18 18 16 14 15 16 14 16 14 15 11 12 14 17 19 21 19 17 14 16 22
48 37 24 33 19 17 18 25 26 26 23 23 24 22 20 18 18 18 19 18 18 18 15 12 12 13 14 15 10 11 13 15 16 16 9 8 8 7 7 10 10 15 18 21 22 24 27
31 43 29 26 36 27 24 22 16 18 18 17 21 18 22 20 20 19 18 19 19 18 15 16 16 15 16 17 16 13 14 13 14 16 17 18 20 19 22 23 24 22 22 23 24 20 31
30 26 33 41 26 25 24 31 21 22 21 15 20 21 21 15 12 12 13 15 14 14 18 17 18 17 16 17 19 20 23 22 21 20 20 18 22 20 26 33 32 31 31 26 27 33 26
28 27 23 21 27 41 26 26 27 24 24 26 25 22 24 21 20 20 21 21 21 23 21 19 19 19 18 19 21 18 17 19 19 17 16 18 21 25 29 23 27 30 31 32 31 29 32
28 22 25 26 26 24 27 30 23 25 20 25 25 22 21 24 23 20 20 17 19 19 17 19 18 21 19 21 21 22 22 22 21 17 19 23 23 17 14 17 20 21 21 22 21 25 23
27 30 26 22 26 23 25 27 25 26 32 29 23 21 28 30 24 21 22 19 17 19 20 23 23 23 22 22 22 22 21 21 23 27 27 27 21 15 15 15 7 9 9 11 14 19 19
23 22 25 26 23 26 24 26 29 28 29 33 29 27 25 31 26 24 23 21 21 23 23 25 26 24 22 20 18 14 19 23 27 28 27 25 18 7 6 11 16 22 17 15 14 17 17
22 21 20 19 19 22 27 28 30 29 36 30 35 30 26 28 29 30 26 25 25 24 26 27 24 22 20 18 16 10 9 7 7 6 10 14 18 15 8 6 6 8 9 12 14 18 16
19 19 18 16 16 17 22 28 30 33 34 36 35 27 34 30 28 29 27 31 27 25 28 24 23 20 21 21 19 12 12 16 8 7 8 12 13 19 17 10 12 20 19 16 5 8 13
16 16 17 15 13 15 17 24 31 37 35 34 34 34 30 29 27 28 27 26 30 26 26 21 18 22 21 22 18 13 14 12 13 15 11 10 8 10 10 10 11 12 12 11 16 24 28
14 14 14 13 11 13 16 24 30 29 35 34 32 28 30 31 29 26 28 30 27 24 21 23 23 12 15 14 16 11 13 11 13 7 16 12 18 8 12 11 17 20 22 25 27 28 28
Wind_Direction
198 195 196 199 207 220 230 246 277 302 314 314 323 334 336 348 349 351 354 358 357 351 345 352 340 333 314 259 263 284 286 282 280 284 283 273 266 259 249 246 227 224 219 212 210 218 225
213 218 217 223 229 244 252 264 278 296 303 306 310 309 313 323 334 336 346 353 350 346 344 337 330 328 305 278 281 280 282 283 280 279 275 269 261 256 251 239 220 230 227 227 223 229 235
217 230 234 237 240 249 264 271 278 280 285 288 281 267 268 297 311 322 341 348 346 348 348 335 317 307 305 291 286 283 283 286 289 287 275 265 257 246 245 241 240 234 229 237 238 239 246
224 229 236 242 246 254 260 265 269 275 275 273 271 265 260 280 294 314 333 339 343 345 343 334 316 304 293 293 291 285 292 296 295 288 275 264 254 245 241 242 243 228 234 236 259 247 249
231 236 240 242 241 247 253 255 261 265 270 270 269 261 259 273 287 297 321 334 336 336 336 339 324 312 287 278 280 301 299 295 293 288 278 264 250 245 238 233 240 242 247 234 263 257 255
224 231 242 250 253 247 250 254 254 257 261 265 269 267 265 272 288 306 320 330 332 331 328 325 316 314 282 276 292 295 297 294 283 274 262 255 251 247 238 215 234 247 248 251 238 272 258
241 231 232 236 244 252 253 253 254 251 254 259 260 261 266 276 286 300 313 326 329 329 326 316 303 292 281 274 270 282 295 300 282 258 250 249 238 232 221 229 238 247 252 252 248 255 262
245 244 237 239 237 241 250 257 259 263 260 259 259 261 261 265 275 284 303 321 332 327 324 316 305 294 283 275 276 285 256 122 139 176 200 240 226 257 259 261 258 258 257 262 253 269 265
245 244 244 244 244 244 244 249 252 256 261 263 266 263 263 260 266 280 298 313 325 329 324 331 354 7 358 349 89 91 113 124 130 206 240 209 253 265 263 263 268 274 263 270 268 275 273
242 244 243 242 245 247 252 252 251 249 251 254 258 260 260 261 261 264 278 298 320 328 316 22 29 36 55 58 77 49 54 356 239 242 261 264 266 268 270 268 270 278 265 278 273 278 271
231 238 241 243 243 244 248 252 255 255 253 248 246 248 253 254 257 261 274 287 308 323 304 254 25 112 68 35 335 316 303 299 286 279 271 274 284 280 275 266 276 257 277 281 278 268 275
233 235 242 243 245 251 255 251 255 259 261 261 258 254 254 256 257 255 260 276 298 291 247 209 184 130 331 313 301 300 293 290 289 283 277 276 280 278 270 278 272 274 282 288 281 262 259
237 235 235 241 244 247 249 255 254 253 254 258 260 264 261 261 264 267 272 279 293 228 212 203 200 288 289 290 288 285 283 280 273 289 284 283 279 275 269 271 273 269 277 289 230 205 250
251 234 237 237 242 243 244 245 247 249 252 253 253 250 254 259 267 269 271 272 236 246 229 249 278 284 286 292 287 272 280 290 281 268 262 262 278 260 266 256 250 249 214 252 289 286 296
236 237 240 240 243 241 239 242 242 245 246 247 249 253 253 249 251 252 252 238 230 231 255 260 280 288 283 246 265 286 287 271 275 249 217 268 258 265 261 259 241 250 232 248 279 280 281
231 235 241 242 238 240 238 241 242 240 241 244 246 252 257 259 256 254 253 250 242 248 263 269 271 262 253 269 284 282 273 277 263 261 248 272 280 269 263 256 249 248 248 266 241 290 285
235 232 231 240 235 233 234 240 241 238 240 245 247 249 252 253 258 257 250 252 265 266 266 263 258 253 262 272 278 272 259 275 269 269 273 275 261 284 278 252 247 260 252 247 249 254 262
255 240 230 226 221 234 230 237 232 241 243 242 244 244 248 250 255 253 252 256 262 264 270 264 263 263 265 275 278 271 252 263 274 279 271 269 261 251 260 267 264 254 248 238 245 262 252
241 244 225 224 208 207 230 233 230 238 238 238 239 242 246 253 251 253 260 260 258 262 271 264 262 268 273 271 273 254 264 272 264 265 258 251 243 279 263 265 272 263 263 262 251 256 254
247 244 218 219 220 208 211 220 217 196 193 212 218 240 245 243 246 254 261 260 254 262 258 276 269 272 276 272 266 263 254 261 254 260 262 260 239 241 261 279 285 275 276 262 257 249 265
249 249 250 234 216 208 250 230 229 265 234 225 229 229 236 238 240 237 249 263 264 252 277 277 272 278 279 271 275 267 264 270 266 267 260 257 263 264 267 280 279 277 273 261 253 261 259
253 243 248 256 262 241 226 244 229 221 246 236 235 244 242 249 251 257 261 263 262 268 268 271 279 284 275 266 260 268 268 270 270 266 254 255 272 277 283 285 272 271 272 270 264 260 260
257 254 241 241 246 243 258 258 233 234 237 238 244 244 238 248 252 260 267 272 263 258 268 272 278 281 271 265 270 266 268 267 261 257 266 269 269 281 279 279 286 287 271 259 254 254 262
253 249 250 246 242 240 235 238 259 236 243 236 237 253 245 237 248 257 268 273 256 260 272 276 276 273 276 269 269 268 267 265 259 263 266 264 260 258 277 292 256 277 267 269 254 262 264
246 248 244 245 239 237 235 234 225 239 234 238 248 248 243 239 246 248 260 262 267 279 273 272 272 271 266 267 265 267 273 275 267 263 257 252 243 254 253 251 277 286 280 272 269 274 272
239 242 245 247 245 238 230 227 227 229 240 240 259 239 243 245 253 258 263 264 273 267 271 269 266 259 256 250 248 245 248 248 268 255 239 240 232 218 229 259 271 279 289 289 291 286 273
238 243 245 247 248 243 233 222 221 227 230 241 243 246 241 244 259 254 262 257 256 259 264 266 261 248 249 244 231 241 248 242 246 230 230 227 231 227 235 252 266 270 279 283 281 282 292
237 241 245 249 254 250 241 228 223 229 237 242 240 246 251 257 253 257 256 266 255 253 257 261 240 238 236 230 240 240 238 236 239 238 245 232 215 215 214 229 254 262 269 273 286 293 300
235 242 247 249 258 251 244 228 228 231 237 242 245 255 249 248 252 257 263 255 253 249 242 243 241 239 219 221 228 231 240 243 236 248 253 243 230 217 223 231 265 286 290 293 298 300 303
Height
3159 3159 3159 3160 3161 3162 3162 3161 3162 3161 3160 3160 3160 3159 3158 3158 3157 3156 3155 3154 3152 3150 3149 3149 3148 3147 3148 3148 3148 3148 3147 3148 3148 3148 3148 3148 3149 3150 3151 3151 3152 3151 3152 3152 3153 3154 3155
3158 3159 3159 3160 3160 3161 3162 3161 3161 3161 3160 3160 3159 3158 3158 3158 3157 3156 3155 3153 3152 3150 3149 3148 3148 3147 3147 3147 3146 3146 3146 3146 3145 3146 3146 3146 3147 3148 3149 3149 3150 3151 3150 3151 3152 3153 3153
3157 3159 3159 3159 3159 3160 3161 3161 3160 3159 3159 3159 3158 3158 3157 3157 3156 3156 3154 3153 3151 3149 3148 3147 3147 3146 3145 3146 3145 3144 3144 3144 3144 3144 3144 3144 3145 3146 3147 3148 3149 3149 3150 3150 3151 3151 3151
3155 3156 3157 3158 3158 3158 3159 3159 3159 3158 3157 3158 3157 3157 3157 3156 3155 3154 3153 3152 3150 3148 3147 3146 3145 3145 3144 3144 3143 3143 3143 3142 3142 3141 3142 3142 3143 3144 3146 3147 3148 3149 3150 3150 3147 3148 3149
3153 3155 3156 3156 3156 3156 3157 3157 3157 3157 3157 3157 3156 3155 3155 3154 3153 3152 3151 3150 3149 3148 3146 3145 3144 3143 3143 3142 3142 3142 3141 3141 3140 3140 3140 3141 3142 3143 3144 3145 3147 3146 3148 3148 3146 3146 3145
3151 3152 3153 3154 3155 3154 3155 3155 3155 3154 3155 3155 3155 3154 3154 3153 3152 3151 3150 3149 3148 3147 3145 3144 3142 3144 3142 3141 3140 3139 3139 3138 3138 3138 3139 3140 3141 3142 3142 3144 3145 3145 3146 3146 3146 3142 3142
3149 3149 3150 3151 3151 3152 3153 3153 3153 3152 3152 3152 3152 3152 3152 3152 3151 3150 3150 3148 3149 3146 3144 3142 3141 3139 3138 3138 3137 3137 3136 3137 3137 3138 3138 3139 3141 3141 3142 3141 3141 3142 3142 3143 3142 3138 3138
3148 3148 3148 3148 3148 3149 3150 3150 3151 3151 3150 3150 3150 3149 3149 3149 3149 3148 3148 3146 3145 3144 3141 3138 3137 3136 3135 3135 3136 3135 3136 3137 3137 3137 3138 3140 3140 3139 3139 3139 3139 3139 3140 3140 3138 3135 3135
3145 3145 3145 3146 3146 3146 3146 3147 3147 3147 3148 3148 3147 3147 3147 3147 3147 3147 3146 3145 3143 3140 3139 3137 3136 3135 3135 3136 3135 3135 3136 3136 3137 3138 3138 3139 3138 3137 3137 3136 3137 3138 3138 3140 3139 3133 3132
3141 3143 3143 3143 3143 3143 3144 3144 3144 3144 3144 3144 3144 3145 3145 3145 3146 3143 3143 3142 3141 3139 3137 3138 3136 3136 3136 3135 3136 3136 3136 3138 3136 3137 3137 3137 3136 3136 3135 3136 3136 3136 3133 3133 3133 3133 3132
3137 3139 3140 3140 3140 3140 3141 3141 3142 3142 3142 3141 3141 3141 3141 3141 3141 3140 3141 3139 3138 3138 3137 3138 3135 3135 3135 3137 3137 3136 3136 3135 3135 3136 3138 3136 3134 3133 3133 3133 3133 3132 3130 3129 3128 3128 3127
3132 3134 3135 3136 3136 3137 3137 3138 3138 3139 3139 3139 3139 3138 3138 3139 3138 3138 3137 3137 3137 3138 3133 3134 3134 3134 3134 3134 3133 3133 3133 3133 3133 3133 3132 3131 3131 3130 3129 3128 3128 3127 3126 3124 3123 3124 3120
3127 3128 3130 3131 3132 3133 3134 3135 3135 3135 3135 3136 3136 3136 3136 3136 3136 3136 3135 3136 3137 3133 3133 3132 3131 3131 3132 3131 3130 3130 3130 3130 3131 3130 3128 3127 3126 3125 3125 3124 3124 3125 3126 3124 3118 3118 3110
3119 3122 3124 3125 3127 3128 3129 3131 3132 3132 3133 3133 3132 3132 3133 3133 3133 3132 3133 3135 3133 3130 3129 3129 3130 3129 3129 3129 3128 3127 3127 3126 3126 3126 3125 3124 3122 3120 3121 3122 3121 3121 3124 3123 3112 3105 3103
3112 3114 3117 3119 3121 3123 3124 3125 3127 3128 3129 3129 3129 3130 3130 3129 3128 3129 3130 3130 3128 3127 3128 3128 3128 3126 3125 3125 3126 3125 3124 3123 3122 3122 3125 3123 3121 3119 3119 3118 3120 3119 3120 3119 3116 3110 3101
3103 3106 3109 3111 3114 3116 3119 3120 3122 3123 3124 3124 3124 3125 3126 3125 3125 3126 3126 3125 3124 3124 3124 3124 3125 3125 3124 3122 3124 3123 3120 3119 3119 3120 3120 3119 3118 3116 3116 3117 3117 3117 3117 3118 3116 3110 3099
3093 3097 3099 3102 3105 3107 3111 3113 3115 3116 3118 3119 3119 3119 3121 3121 3121 3121 3120 3120 3119 3120 3120 3121 3120 3120 3120 3119 3119 3120 3119 3117 3115 3115 3116 3117 3117 3115 3114 3113 3113 3112 3112 3113 3112 3111 3106
3086 3088 3090 3093 3097 3100 3102 3105 3107 3110 3111 3112 3112 3113 3115 3115 3117 3114 3114 3114 3114 3114 3115 3116 3115 3115 3115 3115 3113 3114 3113 3113 3112 3112 3111 3111 3109 3108 3108 3107 3106 3105 3105 3105 3106 3103 3100
3078 3082 3084 3087 3088 3092 3095 3098 3100 3101 3103 3105 3105 3107 3109 3110 3110 3108 3109 3109 3108 3108 3109 3109 3110 3110 3110 3110 3111 3106 3107 3107 3107 3107 3105 3106 3105 3106 3101 3103 3101 3099 3099 3100 3098 3097 3092
3069 3072 3076 3076 3079 3083 3086 3089 3092 3093 3094 3098 3099 3101 3102 3102 3104 3104 3103 3104 3103 3103 3103 3105 3105 3105 3105 3105 3105 3101 3101 3102 3102 3102 3102 3101 3100 3100 3098 3097 3095 3094 3092 3093 3092 3089 3083
3061 3064 3065 3069 3073 3074 3080 3080 3084 3087 3088 3091 3090 3093 3096 3095 3097 3097 3099 3099 3099 3100 3099 3099 3098 3099 3100 3099 3099 3097 3097 3098 3097 3097 3097 3097 3093 3093 3090 3090 3086 3083 3084 3084 3081 3079 3080
3055 3054 3055 3059 3064 3067 3072 3075 3075 3078 3082 3083 3086 3087 3089 3090 3090 3091 3092 3092 3094 3095 3094 3095 3094 3094 3093 3094 3093 3093 3093 3093 3091 3091 3091 3091 3087 3085 3081 3080 3077 3071 3070 3070 3070 3071 3070
3048 3048 3047 3052 3056 3057 3060 3064 3069 3070 3074 3075 3079 3080 3082 3083 3084 3085 3085 3087 3086 3087 3088 3089 3089 3088 3087 3087 3087 3087 3087 3087 3086 3085 3086 3084 3083 3081 3077 3074 3071 3065 3060 3059 3062 3060 3061
3040 3042 3040 3045 3048 3049 3052 3056 3059 3062 3066 3069 3072 3072 3074 3073 3077 3080 3079 3081 3081 3082 3082 3083 3082 3081 3083 3082 3081 3081 3081 3080 3079 3077 3078 3075 3077 3078 3074 3073 3066 3055 3053 3054 3056 3056 3057
3034 3035 3037 3039 3041 3044 3045 3048 3052 3054 3056 3061 3061 3065 3064 3065 3069 3070 3073 3074 3074 3075 3076 3076 3076 3074 3074 3076 3077 3075 3075 3074 3069 3067 3067 3068 3071 3073 3072 3067 3060 3051 3048 3048 3048 3050 3052
3030 3031 3032 3034 3035 3036 3039 3042 3045 3050 3051 3053 3054 3056 3057 3060 3061 3063 3064 3067 3067 3068 3068 3068 3067 3068 3070 3070 3071 3072 3072 3069 3065 3062 3061 3062 3064 3067 3067 3066 3056 3047 3047 3046 3045 3045 3044
3025 3026 3026 3028 3030 3030 3031 3034 3039 3043 3046 3047 3048 3050 3050 3051 3052 3055 3056 3059 3059 3060 3060 3061 3060 3061 3065 3064 3065 3065 3066 3064 3062 3058 3056 3057 3058 3058 3061 3060 3052 3044 3042 3042 3045 3045 3041
3020 3021 3023 3024 3025 3025 3026 3028 3032 3036 3038 3040 3043 3044 3045 3045 3045 3047 3048 3051 3052 3051 3053 3054 3056 3052 3056 3059 3061 3059 3057 3054 3053 3052 3052 3052 3054 3053 3054 3054 3046 3040 3040 3045 3042 3038 3037
3016 3018 3018 3019 3019 3020 3020 3023 3026 3030 3031 3035 3036 3036 3037 3037 3039 3040 3040 3042 3044 3044 3047 3047 3048 3048 3049 3051 3052 3052 3051 3049 3048 3048 3047 3049 3048 3048 3047 3041 3037 3036 3035 3035 3033 3032 3031